Regional Weather Roundup
Issued by NWS

Home | Current Version | Previous Version | Graphics & Text | Print | Product List | Glossary On
Versions: 1 2 3 4 5 6 7 8 9 10 11 12 13 14 15 16 17 18 19 20 21 22 23 24 25 26 27 28 29 30 31 32 33 34 35 36 37 38 39 40 41 42 43 44 45 46 47 48 49 50
000
ASUS43 KFSD 191302
RWRSD

WEATHER ROUNDUP FOR SOUTH DAKOTA
NATIONAL WEATHER SERVICE SIOUX FALLS SD
700 AM CST FRI JAN 19 2018

NOTE: "FAIR" INDICATES FEW OR NO CLOUDS BELOW 12,000 FEET WITH NO
SIGNIFICANT WEATHER AND/OR OBSTRUCTIONS TO VISIBILITY.


SDZ001>005-009-010-012>017-191400-
NORTHWEST AND NORTH CENTRAL SOUTH DAKOTA

CITY           SKY/WX    TMP DP  RH WIND       PRES   REMARKS
BUFFALO          N/A     35  28  75 NW13      29.52R WCI  26
FAITH            N/A     30  25  81 W6        29.56R WCI  24
MOBRIDGE       MOCLDY    24  21  88 CALM      29.53R
$$

SDZ012>016-024>037-041>051-057-063-072>074-191400-
SOUTHWEST AND SOUTH CENTRAL SOUTH DAKOTA

CITY           SKY/WX    TMP DP  RH WIND       PRES   REMARKS
RAPID CTY ARPT PTCLDY    55  25  31 W17       29.54F
PIERRE         CLOUDY    28  26  92 SW3       29.51F
CUSTER         PTCLDY    45  18  34 W20G31    29.65S
ELLSWORTH AFB  PTCLDY    48  26  42 SW15      29.53F
PHILIP         CLOUDY    27  25  92 CALM      29.55S
PINE RIDGE     CLOUDY    44  27  51 NW6       29.63S
SPEARFISH        N/A     54  23  30 SW31G39   29.52R
WINNER         FAIR      46  31  55 SW10      29.56F
$$

SDZ004>011-016>023-039-040-191400-
NORTHEAST SOUTH DAKOTA

CITY           SKY/WX    TMP DP  RH WIND       PRES   REMARKS
ABERDEEN       MOCLDY    22  21  96 S6        29.53F WCI  14
WATERTOWN      CLOUDY    27  25  92 S12       29.52F WCI  17
BROOKINGS      CLOUDY    28  25  88 S9        29.56F WCI  19
SISSETON         N/A     36  25  64 SE6       29.50S
$$

SDZ017-020-022-023-036>040-048>070-191400-
SOUTHEAST SOUTH DAKOTA

CITY           SKY/WX    TMP DP  RH WIND       PRES   REMARKS
SIOUX FALLS    CLOUDY    28  25  88 SE5       29.59F WCI  23
HURON          CLOUDY    28  26  92 S6        29.55R WCI  22
CHAMBERLAIN    MOCLDY    31  30  94 SW6       29.55F WCI  26
MITCHELL       CLOUDY    28  26  92 S6        29.56F WCI  22
YANKTON        CLOUDY    29  25  85 S5        29.60F WCI  24
$$

ABBREVIATIONS USED IN REMARKS
   TC - TEMPERATURE IN CELSIUS
  WCI - WIND CHILL INDEX
   HX - HEAT INDEX
  VSB - VISIBILITY





USA.gov is the U.S. government's official web portal to all federal, state and local government web resources and services.